Location: Hohenfelde
(53.8441°N, 9.6220°E)
Time: 12:03:17
(UTC+00:00)

Cosmos 1378 Rocket - Pass Details

Date: 14 July 2020
Orbit: 602 x 626 km, 82.5° (Epoch: 12 August)

Event Time Altitude Azimuth Distance (km) Brightness Sun altitude
Rises 02:14:28 0° 346° (NNW) 2,900 7.6 -6.4°
Reaches altitude 10° 02:16:43 10° 344° (NNW) 1,994 6.7 -6.2°
Maximum altitude 02:21:05 67° 263° (W) 675 3.6 -5.8°
Drops below altitude 10° 02:25:28 10° 181° (S) 1,991 5.7 -5.4°
Sets 02:27:42 0° 178° (S) 2,896 6.6 -5.2°
